Orbital Elements at Epoch 2459000.5 (2020-May-31.0) TDB
Reference: JPL 23 (heliocentric ecliptic J2000)
Element | Value | Uncertainty (1-sigma) | Units |
e | .06031843013286039 | 4.8384e-08 | |
a | 2.516188848838501 | 1.14e-08 | au |
q | 2.364416287558753 | 1.2086e-07 | au |
i | 3.942238748538299 | 5.1535e-06 | deg |
node | 11.70245701813864 | 5.2765e-05 | deg |
peri | 336.0787793751395 | 6.1475e-05 | deg |
M | 68.16682707284453 | 3.047e-05 | deg |
tp | 2458724.452476271526 (2019-Aug-28.95247627) | 0.00012316 | TDB |
period | 1457.851462501753 3.99 | 9.9074e-06 2.712e-08 | d yr |
n | .2469387377656571 | 1.6782e-09 | deg/d |
Q | 2.667961410118248 | 1.2087e-08 | au |
|
| | Orbit Determination Parameters
Additional Information
|